Regional Weather Roundup
Issued by NWS

Home | Current Version | Previous Version | Graphics & Text | Print | Product List | Glossary On
Versions: 1 2 3 4 5 6 7 8 9 10 11 12 13 14 15 16 17 18 19 20 21 22 23 24 25 26 27 28 29 30 31 32 33 34 35 36 37 38 39 40 41 42 43 44 45 46 47 48 49 50
000
ASUS43 KDTX 210910
RWRMI
MICHIGAN HOURLY REGIONAL WEATHER ROUNDUP
NATIONAL WEATHER SERVICE DETROIT/PONTIAC MI
400 AM EST SUN JAN 21 2018

NOTE: "FAIR" INDICATES FEW OR NO CLOUDS BELOW 12,000 FEET WITH NO
SIGNIFICANT WEATHER AND/OR OBSTRUCTION TO VISIBILITY.

MIZ047>049-052>055-059>063-066>070-074>076-081>083-211000-
SOUTHEAST LOWER MICHIGAN

CITY           SKY/WX    TMP DP  RH WIND       PRES   REMARKS
ADRIAN         FOG       34  34 100 CALM      30.06S VSB 1/4
ALMA           CLOUDY    33  32  96 S10       30.02F WCI  25
ANN ARBOR      CLOUDY    36  35  96 S6        30.05R FOG     WCI  31
BAD AXE        FAIR      30  28  91 CALM      30.03S
CARO           FAIR      30  29  96 CALM      30.03S FOG
DETROIT CITY   CLOUDY    37  34  89 CALM      30.06F
DETROIT        CLOUDY    36  35  96 S5        30.06F FOG     WCI  32
FLINT          MOCLDY    30  29  96 S3        30.04S FOG
GROSSE ILE     CLOUDY    34  33  96 MISG      30.06S FOG
HILLSDALE      CLOUDY    36  34  93 S3        30.02S FOG
HOWELL         CLOUDY    35  34  96 CALM      30.03S FOG

CITY           SKY/WX    TMP DP  RH WIND       PRES   REMARKS
JACKSON        CLOUDY    36  35  96 S5        30.02F FOG     WCI  32
LAMBERTVILLE   CLOUDY    37  35  94 CALM      30.06S FOG
LANSING        CLOUDY    36  35  96 S6        30.03S FOG     WCI  31
LAPEER         FAIR      28  28  99 CALM      30.03F FOG
MASON          CLOUDY    37  34  87 CALM      30.03S FOG
MONROE         CLOUDY    36  34  93 CALM      30.06S FOG
MT. CLEMENS    CLOUDY   N/A N/A N/A S6          N/A
PONTIAC        CLOUDY    32  30  92 CALM      30.03S
PORT HOPE        N/A     34  29  82 SW7       30.00S WCI  28
PORT HURON     FAIR      28  27  93 S3        30.06S FOG
TRI CITIES     CLOUDY    33  31  92 S6        30.03S FOG     WCI  28
MIDLAND        MOCLDY    32  31  96 CALM      30.01F FOG
TROY           CLOUDY    35  32  89 CALM      30.06F
SAGINAW HB     CLOUDY    32  32 100 S5        30.03R WCI  27
$$
MIZ043>046-050>051-056>058-064>065-071>073-077>080-211000-
SOUTHWEST LOWER MICHIGAN

CITY           SKY/WX    TMP DP  RH WIND       PRES   REMARKS
BATTLE CREEK   CLOUDY    35  34  96 S6        30.03S FOG     WCI  30
BENTON HARBOR  CLOUDY    38  33  82 S6        30.03R WCI  33
BIG RAPIDS     CLOUDY    28  26  92 CALM      29.99S FOG
COLDWATER      CLOUDY    35  35 100 CALM      30.03S FOG
FREMONT        FOG       34  32  93 S3        30.00S VSB 1/4
HOLLAND        CLOUDY    36  34  92 S3        30.02R FOG
GRAND RAPIDS   CLOUDY    36  33  89 S7        30.01S FOG     WCI  30
IONIA          CLOUDY    35  34  97 S3        30.01R FOG
KALAMAZOO      CLOUDY    37  35  92 S3        30.03R FOG
LUDINGTON        N/A     29  29 100 CALM      29.99S FOG
MARSHALL       CLOUDY    35  35  98 CALM      30.03S FOG
MOUNT PLEASANT CLOUDY    35  33  93 W3        30.00S FOG
MUSKEGON       CLOUDY    37  35  92 S6        30.01S FOG     WCI  32
SOUTH HAVEN    CLOUDY    37  35  90 CALM      30.02S
$$
MIZ016>042-211000-
NORTHERN LOWER MICHIGAN

CITY           SKY/WX    TMP DP  RH WIND       PRES   REMARKS
ALPENA         FAIR      28  27  96 CALM      30.01R
BEAVER ISLAND  FAIR      29  29  99 CALM      29.98F FOG
BELLAIRE       FAIR      29  29 100 CALM      30.01S
CADILLAC       FAIR      32  30  94 CALM      29.97S FOG
CHARLEVOIX     CLOUDY    31  31 100 CALM      30.02F
FRANKFORT      FAIR      32  32 100 CALM      29.98F FOG
GAYLORD        MOCLDY    31  30  96 CALM      29.98S
GRAYLING       FAIR      30  28  92 CALM      30.00S
HARBOR SPRINGS MOCLDY    29  29  99 CALM      30.00S
HOUGHTON LAKE  FAIR      28  26  92 CALM      29.99S
MANISTEE       FAIR      29  28  96 E5        29.99S FOG     WCI  24
OSCODA         FAIR      29  28  96 CALM      30.01S
PELLSTON       FAIR      26  25  96 CALM      30.00S
ROGERS CITY    MOCLDY    29  28  95 CALM      30.02R
TRAVERSE CITY  FAIR      32  29  88 CALM      29.99R
$$
MIZ007>008-015-211000-
EASTERN UPPER MICHIGAN

CITY           SKY/WX    TMP DP  RH WIND       PRES   REMARKS
KINROSS        FAIR      30  30 100 S6        29.99R WCI  24
MACKINAC ISLAN CLOUDY    31  30  98 SW5       29.99S WCI  26
NEWBERRY       FOG       29  28  97 S5        29.96S VSB 1/4 WCI  23
S. S. MARIE    MOCLDY    30  27  88 CALM      29.98R
MUNISING         N/A     28  27  96 SW5       29.95S WCI  23
$$
MIZ004>006-011>014-085-211000-
CENTRAL UPPER MICHIGAN

CITY           SKY/WX    TMP DP  RH WIND       PRES   REMARKS
MANISTIQUE     MOCLDY    28  27  93 CALM      29.96F FOG
ESCANABA       CLOUDY    28  27  96 CALM      29.96S FOG
MENOMINEE      FAIR      31  28  89 CALM      29.97S
SAWYER-GWINN   FOG       24  23  94 CALM      29.94S VSB 1/2
$$
MIZ001>003-009>011-084-211000-
WESTERN UPPER MICHIGAN

CITY           SKY/WX    TMP DP  RH WIND       PRES   REMARKS
IRON MOUNTAIN  CLOUDY    30  26  85 NW3       29.93R
HOUGHTON       FAIR      23  19  85 NW8       29.92R WCI  14
COPPER HARBOR    N/A     28  26  92 W5        29.94R WCI  23
IRONWOOD       FAIR      25  25 100 CALM      29.94S FOG
$$

ABBREVIATIONS USED IN REMARKS
   TC - TEMPERATURE IN CELSIUS
  WCI - WIND CHILL INDEX
   HX - HEAT INDEX
  VSB - VISIBILITY





USA.gov is the U.S. government's official web portal to all federal, state and local government web resources and services.